Location: Knowlton
(51.2333°N, 1.2667°E)
Time: 11:22:00
(UTC+00:00)

Daily predictions for brighter satellites

Satellite Brightness Start Highest point End
(mag) Time Altitude Azimuth Time Altitude Azimuth Time Altitude Azimuth
CZ-4C R/B 4.3 20:20:25 10° WNW 20:25:26 32° NNW 20:31:25 10° NE
Cosmos 1782 4.0 20:22:32 10° N 20:26:06 29° ENE 20:29:37 10° SE
Cosmos 371 Rocket 3.4 20:21:57 10° NNW 20:26:47 80° WSW 20:31:36 10° SSE
ARIANE 5 R/B 3.5 20:27:26 10° SE 20:31:32 36° ENE 20:35:37 10° N
Cosmos 1271 Rocket 3.3 20:28:53 10° N 20:32:44 44° ENE 20:36:35 10° SE
USA 276 2.5 20:32:22 10° W 20:35:27 48° SSW 20:38:29 10° ESE
NOSS 3-4 (A) 4.4 20:30:39 10° WSW 20:36:29 55° NW 20:42:52 10° NE
NOSS 3-4 (C) 4.3 20:30:46 10° WSW 20:36:34 55° NW 20:42:58 10° NE
BREEZE-M DEB (TANK) 2.9 20:34:01 10° W 20:36:42 42° SSW 20:42:43 10° SE
SPOT 1/Viking Rocket 3.6 20:32:29 10° SSE 20:37:41 76° ENE 20:42:55 10° NNW
Cosmos 1076 Rocket 3.6 20:35:02 10° S 20:39:22 89° E 20:43:46 10° N
Cosmos 1151 Rocket 4.0 20:35:44 10° N 20:39:43 34° ENE 20:43:40 10° SE
ATLAS 5 CENTAUR R/B 3.9 20:36:24 10° NW 20:40:28 25° NNE 20:45:09 10° ENE
OBJECT-B 3.8 20:40:48 10° WSW 20:42:19 13° W 20:43:51 10° WNW
ATLAS 2AS CENTAUR R/B 3.3 20:37:20 10° SW 20:45:17 78° NW 20:52:58 10° NE
ATLAS 3B R/B 3.4 20:42:08 10° NW 20:49:00 55° WSW 20:56:07 10° SSE
Cosmos 1833 Rocket 4.1 20:44:55 10° WSW 20:50:18 44° NW 20:55:43 10° NNE
Terra 2.7 20:47:56 11° SE 20:52:09 36° ENE 20:56:29 10° N
SPOT 5 3.1 20:50:48 11° SE 20:54:43 47° ENE 20:58:59 10° N
Cosmos 2082 Rocket 2.6 20:51:13 10° SW 20:56:50 69° WNW 21:02:32 10° NNE
Cosmos 1092 Rocket 4.1 20:51:13 10° S 20:57:25 69° E 21:03:42 10° NNE
Meteor 2-19 Rocket 4.4 20:51:28 10° S 20:57:31 77° E 21:03:35 10° NNE
Cosmos 2056 Rocket 4.2 20:52:23 10° NNW 20:57:34 45° ENE 21:02:09 13° SE
Cosmos 1633 3.6 20:55:15 10° SSW 20:58:44 47° WNW 21:02:16 10° N
BREEZE-M DEB (TANK) 2.0 20:59:26 10° WSW 21:01:52 40° S 21:03:12 15° ESE
Cosmos 332 Rocket 4.2 20:59:15 10° NNW 21:04:05 62° WSW 21:08:55 10° S
ERS-1 Rocket 3.1 21:00:35 12° SSE 21:05:10 63° ENE 21:10:09 10° N
Cosmos 2360 Rocket 2.7 20:59:50 10° NNW 21:05:19 50° NE 21:10:08 13° SE
SL-27 R/B 4.3 21:06:23 14° ESE 21:07:18 15° E 21:09:23 10° ENE
Cosmos 158 Rocket 4.0 21:03:16 10° SSW 21:08:27 81° ESE 21:13:47 10° NNE
Cosmos 2026 Rocket 4.0 21:04:07 10° S 21:10:24 69° E 21:16:37 10° NNE
GP-B 3.1 21:07:20 10° N 21:11:48 76° E 21:16:13 10° S
ISS -1.9 21:11:29 10° W 21:14:05 21° SW 21:15:56 14° S
Cosmos 2333 Rocket 3.3 21:10:34 10° NNW 21:15:44 35° NE 21:20:38 11° ESE
Cosmos 1371 Rocket 4.2 21:13:48 10° NNW 21:19:11 69° ENE 21:23:22 17° SE
Spot 2 Rocket 3.7 21:14:48 11° S 21:19:47 74° WSW 21:24:56 10° NNW
Cosmos 1812 3.0 21:16:42 10° N 21:20:30 52° ENE 21:23:04 19° SSE
Cosmos 220 Rocket 4.0 21:18:20 10° NNW 21:22:41 79° ENE 21:25:50 19° SSE
Cosmos 2112 Rocket 4.3 21:18:10 10° S 21:23:13 46° ESE 21:28:15 10° NE
Cosmos 1680 Rocket 3.7 21:18:34 10° S 21:23:41 53° ESE 21:28:48 10° NNE
CZ-2C R/B 3.8 21:19:14 10° NNE 21:23:48 77° WNW 21:28:15 10° SSW
Cosmos 1980 Rocket 4.2 21:21:54 10° NW 21:26:06 22° WSW 21:30:18 10° SSW
Okean 3 Rocket 3.7 21:24:58 13° S 21:28:51 62° E 21:33:20 10° NNE
RESURS DK-1 4.4 21:25:30 10° WSW 21:29:16 33° NW 21:33:04 10° NNE
Cosmos 292 Rocket 4.3 21:25:47 10° NNW 21:30:25 48° ENE 21:33:40 18° SE
USA 234 3.7 21:24:26 10° E 21:30:54 64° NNE 21:37:24 10° WNW
Cosmos 2237 Rocket 4.3 21:31:49 10° NNW 21:35:52 19° NNE 21:39:55 10° ENE
Cosmos 2322 Rocket 2.4 21:31:59 10° NNW 21:37:36 69° WSW 21:41:46 18° SSE
Resurs 01 Rocket 4.1 21:39:08 10° SW 21:42:12 18° W 21:45:18 10° NW
Cosmos 1408 Rocket 3.9 21:40:12 22° SSE 21:42:44 46° E 21:46:54 10° NNE
Gblst 52 Del rocket 4.5 21:42:21 10° W 21:48:22 90° NE 21:55:17 10° E
Meteor 2-14 Rocket 4.4 21:44:00 14° S 21:49:26 75° E 21:55:35 10° NNE
Cosmos 1553 Rocket 4.0 21:44:44 10° NNW 21:50:49 81° W 21:55:36 17° S
Cosmos 2084 3.6 21:48:52 14° SSW 21:52:04 44° SE 21:56:03 10° NE
Gbstr 26 Del rocket 4.0 21:51:01 10° W 21:54:12 26° SW 21:55:27 22° S
CZ-4B DEB 4.2 21:53:29 32° S 21:54:50 84° W 21:58:01 10° NNW
Cosmos 2266 Rocket 4.3 21:53:29 21° SSE 21:57:26 51° E 22:03:27 10° NNE
Cosmos 2219 Rocket 2.7 21:53:46 10° NNW 21:59:15 52° NE 22:02:58 20° ESE
Cosmos 1862 3.2 21:57:03 23° S 21:59:29 80° E 22:03:29 10° NNE
Cosmos 1624 Rocket 4.2 21:54:30 10° NNW 21:59:41 67° WSW 22:02:57 23° S
Cosmos 1782 4.4 21:58:51 10° NNW 22:02:22 29° W 22:05:38 11° SSW
Cosmos 2228 Rocket 3.7 21:59:50 10° N 22:04:04 43° ENE 22:06:05 26° SE
Cosmos 1515 Rocket 3.5 21:59:49 10° NNW 22:04:18 85° W 22:06:43 26° S
H-2A R/B 3.5 22:00:57 10° NNE 22:05:07 62° ESE 22:07:15 27° S
SL-16 R/B 3.3 22:00:48 10° NW 22:05:54 35° WSW 22:09:55 15° SSW
NOSS 2-1 (E) 3.1 22:05:22 37° S 22:06:09 46° SE 22:09:30 10° NE
ARIANE 5 R/B 4.1 22:04:24 12° SSW 22:08:02 31° W 22:12:00 10° NNW
NOSS 3-1 (C) 4.0 22:01:01 10° NW 22:08:17 88° NE 22:14:30 21° SE
Cosmos 2333 4.2 22:03:17 10° NNW 22:08:55 79° ENE 22:12:13 26° SE
Cosmos 1420 Rocket 4.1 22:05:21 10° NNW 22:10:43 79° WSW 22:13:43 27° SSE
USA 276 4.3 22:09:11 10° WSW 22:10:46 15° SW 22:10:46 15° SW
COSMOS 2455 3.6 22:09:10 25° SSE 22:11:32 33° ESE 22:16:51 10° NE
COSMOS 2428 3.1 22:08:23 10° NNW 22:14:00 56° NE 22:17:35 22° SE
CZ-4C R/B 4.4 22:10:21 10° NW 22:15:49 30° NNE 22:22:14 10° ENE
Cosmos 1655 Rocket 4.0 22:12:44 21° S 22:17:15 78° E 22:23:41 10° NNE
S3M 4.2 22:14:43 10° NNW 22:21:07 73° W 22:25:25 22° S
USA 229 DEB 4.0 22:15:18 10° NW 22:22:32 75° NE 22:28:16 19° SE
USA 229 4.0 22:15:23 10° NW 22:22:37 75° NE 22:28:23 19° SE
Spot 4 4.2 22:21:45 28° SE 22:24:04 54° ENE 22:28:48 10° N
ATLAS 5 CENTAUR R/B 2.6 22:20:50 10° NW 22:26:02 60° NE 22:30:39 18° ESE
Cosmos 1174 3.4 22:23:14 10° NW 22:26:10 50° SW 22:26:29 47° SSW
Terra 3.0 22:26:49 17° SSW 22:29:54 35° W 22:34:17 10° NNW
Cosmos 1452 Rocket 3.5 22:24:57 10° NNW 22:30:15 83° ENE 22:32:49 31° SSE
Cosmos 1707 Rocket 4.5 22:26:36 10° N 22:30:40 37° ENE 22:32:18 27° ESE
COSMOS 2487 3.1 22:31:49 35° E 22:31:49 35° E 22:34:51 10° NE
ALOS 2 3.4 22:33:57 27° ESE 22:35:46 40° ENE 22:39:53 10° N
ATLAS 2AS CENTAUR R/B 4.5 22:30:09 10° W 22:37:22 38° NNW 22:44:15 10° NE
USA 267 3.3 22:31:46 10° ENE 22:38:09 52° SE 22:44:30 10° SW
Meteor 1-27 Rocket 3.8 22:35:36 10° NNW 22:41:13 72° W 22:44:15 29° S
SL-27 R/B 3.2 22:39:50 22° SW 22:41:56 53° WNW 22:45:29 10° NNE
NOSS 3-1 (A) 4.0 22:35:41 10° NW 22:42:59 89° NE 22:48:48 23° SE
Cosmos 2360 Rocket 3.2 22:44:07 10° NW 22:49:10 35° WSW 22:51:53 22° SSW
IRIDIUM 104 4.4 22:44:34 10° N 22:49:48 77° W 22:52:18 32° S
NOSS 2-1 (C) 3.3 22:48:04 16° WSW 22:50:32 60° NW 22:54:02 10° NE
Cosmos 1805 Rocket 3.5 22:49:13 40° S 22:50:43 73° E 22:55:09 10° NNE
Cosmos 1110 Rocket 4.1 22:50:57 10° NNW 22:56:18 75° ENE 22:58:40 34° SE
Meteor 1-20 Rocket 4.3 22:54:51 34° SSE 22:57:16 65° E 23:02:55 10° NNE
Cosmos 1980 4.3 22:52:20 10° NNW 22:57:52 50° NE 23:01:19 22° ESE
NOSS 2-1 (D) 3.7 22:55:30 13° WSW 22:58:16 51° NW 23:01:45 10° NE
Cosmos 2333 Rocket 2.5 22:54:46 10° NW 23:00:17 55° WSW 23:02:38 33° S
Cosmos 1833 4.4 22:56:03 14° SW 23:01:10 72° WNW 23:06:58 10° NNE
Cosmos 1331 Rocket 4.0 22:56:28 10° NNW 23:01:44 75° ENE 23:03:58 35° SE
Cosmos 1500 Rocket 4.1 22:59:40 26° SW 23:01:55 53° WNW 23:06:17 10° N
Cosmos 972 Rocket 4.0 23:07:28 29° SSW 23:10:15 83° WNW 23:15:16 10° NNE
Cosmos 2322 4.2 23:04:58 10° NW 23:10:29 49° WSW 23:12:44 32° SSW
COBE Rocket 4.2 23:09:07 34° SSW 23:10:49 51° W 23:15:25 10° NNW
NOSS 0 Rocket 3.9 23:06:34 10° NNW 23:12:51 84° ENE 23:16:01 31° SE
USA 234 3.2 23:10:02 26° SE 23:13:56 69° SW 23:20:30 10° WNW
Cosmos 468 4.4 23:16:08 36° SSW 23:18:18 80° ESE 23:23:34 10° NNE
Cosmos 2297 Rocket 3.4 23:17:11 24° ESE 23:18:21 26° ESE 23:22:57 10° NE
Cosmos 2322 Rocket 4.4 23:18:20 10° WNW 23:20:35 12° W 23:22:51 10° WSW
Lacrosse 5 3.4 23:21:59 20° ESE 23:21:59 20° ESE 23:24:47 10° ENE
Cosmos 2237 Rocket 2.4 23:15:23 10° NNW 23:21:04 66° ENE 23:24:02 29° SE
Cosmos 2084 Rocket 3.5 23:18:23 10° NW 23:22:33 73° NE 23:24:07 38° ESE
NOSS 2-2 (E) 4.4 23:18:42 10° NW 23:23:45 75° NE 23:28:32 21° SE
Meteor 1-18 Rocket 4.2 23:18:35 10° NNW 23:24:30 87° ENE 23:26:56 37° SSE
Cosmos 1500 3.2 23:26:57 56° SE 23:27:23 61° E 23:31:13 10° NNE
Cosmos 1470 Rocket 4.2 23:29:03 37° ESE 23:29:51 41° E 23:33:55 10° NNE
Cosmos 2227 Rocket 3.5 23:28:53 23° ESE 23:30:05 24° ESE 23:34:32 10° NE
Sich 1 3.3 23:28:46 37° SW 23:30:15 60° WNW 23:34:34 10° N
Okean 1 3.4 23:27:03 10° NNW 23:31:03 67° W 23:31:46 53° SSW
Meteor 1-25 Rocket 4.2 23:30:16 33° SSW 23:32:53 76° WNW 23:38:28 10° N
Cosmos 1633 Rocket 3.0 23:33:06 52° S 23:34:07 76° E 23:38:29 10° NNE
Cosmos 494 Rocket 3.9 23:33:17 38° SSW 23:35:16 88° ESE 23:40:27 10° NNE
Cosmos 1666 Rocket 3.5 23:37:07 48° SSW 23:38:19 83° WNW 23:42:47 10° N
Cosmos 1048 Rocket 4.2 23:39:38 29° SW 23:42:12 67° WNW 23:47:20 10° NNE
Cosmos 2219 Rocket 3.2 23:38:05 10° NW 23:43:00 32° WSW 23:44:40 27° SW
NOSS 2-2 (C) 4.3 23:42:57 10° NW 23:47:59 86° NE 23:52:23 23° SE
SL-08 R/B 4.4 23:45:16 35° S 23:48:05 89° W 23:54:18 10° N
SL-16 R/B 3.1 23:42:51 10° NNW 23:48:17 44° NE 23:52:42 15° ESE
PSLV R/B 4.4 23:46:26 10° NNE 23:51:01 44° E 23:52:12 37° SE
Cosmos 1269 Rocket 4.4 23:50:05 39° SSE 23:51:31 49° ESE 23:56:37 10° NNE
Resurs 1-4 Rocket 4.5 23:51:06 10° ENE 23:52:27 11° E 23:53:48 10° E
